Watford City, ND

12:06 PM CDT on April 23, 2017 (GMT -0500)
Watford City

Weather History for KS25 - January, 2014

Change the Weather History Date:

Sunday, January 19, 2014

  Actual Average (KISN) Record (KISN)
Temperature  
Mean Temperature 36 °F -  
Max Temperature 39 °F 21 °F 52 °F (1900)
Min Temperature 32 °F 0 °F -33 °F (1970)
Degree Days  
Heating Degree Days 30    
Moisture  
Dew Point 26 °F    
Average Humidity 70    
Maximum Humidity 81    
Minimum Humidity 60    
Precipitation  
Precipitation 0.00 in - - ()
Sea Level Pressure  
Sea Level Pressure 29.68 in    
Wind  
Wind Speed 14 mph (West)    
Max Wind Speed 23 mph    
Max Gust Speed 30 mph    
Visibility 10 miles    
Events      
Averages and records for this station are not official NWS values.
T = Trace of Precipitation, MM = Missing Value Source: NWS Daily Summary

Daily Weather History Graph

Daily Weather History Graph

Search for Another Location

Airport or City:

Trip Planner

Search our weather history database for the weather conditions in past years. The results will help you decide how hot, cold, wet, or windy it might be!

Date:

Astronomy

Jan. 19, 2014 Rise Set
Actual Time 8:34 AM CST 5:33 PM CST
Civil Twilight 7:59 AM CST 6:08 PM CST
Nautical Twilight 7:21 AM CST 6:46 PM CST
Astronomical Twilight 6:44 AM CST 7:23 PM CST
Moon 9:33 PM CST (1/19) 9:47 AM CST (1/19)
Length of Visible Light 10h 08m
Length of Day
8h 59m
Waning Gibbous, 89% of the Moon is Illuminated
Jan 19
Waning Gibbous
Jan 23
Last Quarter
Jan 30
New
Feb 6
First Quarter
Feb 14
Full

Hourly Weather History & Observations

Time (CST) Temp. Windchill Dew Point Humidity Pressure Visibility Wind Dir Wind Speed Gust Speed Precip Events Conditions
12:15 AM 35.6 °F 28.6 °F 26.6 °F 70% 29.66 in 10.0 mi WSW 9.2 mph - N/A   Clear
12:35 AM 35.6 °F 27.1 °F 26.6 °F 70% 29.64 in 10.0 mi WSW 12.7 mph - N/A   Clear
12:55 AM 32.0 °F 22.1 °F 26.6 °F 80% 29.64 in 10.0 mi WSW 13.8 mph - N/A   Clear
1:15 AM 32.0 °F 23.6 °F 26.6 °F 80% 29.63 in 10.0 mi WSW 10.4 mph - N/A   Clear
1:35 AM 32.0 °F 27.5 °F 26.6 °F 80% 29.61 in 10.0 mi SW 4.6 mph - N/A   Clear
1:55 AM 32.0 °F 21.2 °F 26.6 °F 80% 29.61 in 10.0 mi WSW 16.1 mph 19.6 mph N/A   Clear
2:15 AM 32.0 °F 21.2 °F 26.6 °F 80% 29.60 in 10.0 mi WSW 16.1 mph 20.7 mph N/A   Clear
2:35 AM 33.8 °F 23.9 °F 26.6 °F 75% 29.58 in 10.0 mi SW 15.0 mph - N/A   Clear
2:55 AM 32.0 °F 22.5 °F 26.6 °F 80% 29.59 in 10.0 mi WSW 12.7 mph 17.3 mph N/A   Clear
3:15 AM 32.0 °F 21.2 °F 26.6 °F 80% 29.59 in 10.0 mi SW 16.1 mph 23.0 mph N/A   Clear
3:35 AM 32.0 °F 22.1 °F 26.6 °F 80% 29.60 in 10.0 mi WSW 13.8 mph - N/A   Clear
3:55 AM 33.8 °F 26.4 °F 26.6 °F 75% 29.60 in 10.0 mi WSW 9.2 mph - N/A   Clear
4:15 AM 32.0 °F 22.1 °F 26.6 °F 80% 29.58 in 10.0 mi WSW 13.8 mph - N/A   Clear
4:35 AM 33.8 °F 23.9 °F 26.6 °F 75% 29.57 in 10.0 mi WSW 15.0 mph - N/A   Clear
4:55 AM 32.0 °F 21.2 °F 26.6 °F 80% 29.57 in 10.0 mi WSW 16.1 mph - N/A   Clear
5:15 AM 35.6 °F 25.9 °F 26.6 °F 70% 29.56 in 10.0 mi SW 16.1 mph - N/A   Clear
5:35 AM 37.4 °F 28.5 °F 26.6 °F 65% 29.56 in 10.0 mi SSW 15.0 mph 23.0 mph N/A   Clear
5:55 AM 37.4 °F 27.8 °F 26.6 °F 65% 29.55 in 10.0 mi SSW 17.3 mph 23.0 mph N/A   Clear
6:15 AM 37.4 °F 29.3 °F 24.8 °F 60% 29.55 in 10.0 mi SSW 12.7 mph - N/A   Clear
6:35 AM 35.6 °F 30.7 °F 24.8 °F 65% 29.55 in 10.0 mi West 5.8 mph - N/A   Clear
6:55 AM 37.4 °F 27.2 °F 24.8 °F 60% 29.54 in 10.0 mi WNW 19.6 mph 29.9 mph N/A   Clear
7:15 AM 37.4 °F 26.4 °F 26.6 °F 65% 29.55 in 10.0 mi WNW 23.0 mph 29.9 mph N/A   Clear
7:35 AM 37.4 °F 27.8 °F 26.6 °F 65% 29.57 in 10.0 mi WNW 17.3 mph 28.8 mph N/A   Clear
7:55 AM 37.4 °F 28.5 °F 26.6 °F 65% 29.59 in 10.0 mi West 15.0 mph 23.0 mph N/A   Clear
8:15 AM 35.6 °F 25.5 °F 26.6 °F 70% 29.59 in 10.0 mi WNW 17.3 mph 25.3 mph N/A   Clear
8:35 AM 35.6 °F 25.2 °F 26.6 °F 70% 29.60 in 10.0 mi WNW 18.4 mph 24.2 mph N/A   Partly Cloudy
8:55 AM 35.6 °F 25.9 °F 26.6 °F 70% 29.63 in 10.0 mi West 16.1 mph 21.9 mph N/A   Partly Cloudy
9:15 AM 35.6 °F 26.2 °F 26.6 °F 70% 29.64 in 10.0 mi West 15.0 mph 18.4 mph N/A   Clear
9:35 AM 35.6 °F 25.9 °F 26.6 °F 70% 29.65 in 10.0 mi West 16.1 mph 21.9 mph N/A   Clear
9:55 AM 37.4 °F 28.2 °F 26.6 °F 65% 29.67 in 10.0 mi West 16.1 mph 24.2 mph N/A   Clear
10:15 AM 37.4 °F 28.9 °F 26.6 °F 65% 29.67 in 10.0 mi West 13.8 mph 18.4 mph N/A   Clear
10:35 AM 37.4 °F 28.2 °F 26.6 °F 65% 29.69 in 10.0 mi West 16.1 mph 21.9 mph N/A   Clear
10:55 AM 37.4 °F 27.8 °F 26.6 °F 65% 29.70 in 10.0 mi West 17.3 mph - N/A   Clear
11:15 AM 37.4 °F 28.9 °F 26.6 °F 65% 29.70 in 10.0 mi West 13.8 mph 24.2 mph N/A   Clear
11:35 AM 37.4 °F 28.2 °F 26.6 °F 65% 29.70 in 10.0 mi West 16.1 mph 21.9 mph N/A   Clear
11:55 AM 39.2 °F 30.5 °F 26.6 °F 61% 29.70 in 10.0 mi West 16.1 mph 26.5 mph N/A   Clear
12:15 PM 39.2 °F 31.2 °F 26.6 °F 61% 29.70 in 10.0 mi West 13.8 mph 24.2 mph N/A   Clear
12:35 PM 39.2 °F 30.2 °F 26.6 °F 61% 29.70 in 10.0 mi West 17.3 mph 23.0 mph N/A   Clear
12:55 PM 39.2 °F 31.2 °F 26.6 °F 61% 29.70 in 10.0 mi West 13.8 mph - N/A   Clear
1:15 PM 39.2 °F 31.2 °F 26.6 °F 61% 29.70 in 10.0 mi West 13.8 mph - N/A   Clear
1:35 PM 39.2 °F 32.0 °F 26.6 °F 61% 29.70 in 10.0 mi West 11.5 mph 20.7 mph N/A   Clear
1:55 PM 39.2 °F 31.6 °F 26.6 °F 61% 29.70 in 10.0 mi WNW 12.7 mph 19.6 mph N/A   Clear
2:15 PM 39.2 °F 31.6 °F 26.6 °F 61% 29.70 in 10.0 mi West 12.7 mph - N/A   Clear
2:35 PM 39.2 °F 30.8 °F 26.6 °F 61% 29.70 in 10.0 mi West 15.0 mph 20.7 mph N/A   Clear
2:55 PM 39.2 °F 30.8 °F 26.6 °F 61% 29.70 in 10.0 mi West 15.0 mph 20.7 mph N/A   Clear
3:15 PM 37.4 °F 28.9 °F 26.6 °F 65% 29.70 in 10.0 mi West 13.8 mph 20.7 mph N/A   Clear
3:35 PM 37.4 °F 28.2 °F 26.6 °F 65% 29.71 in 10.0 mi West 16.1 mph - N/A   Clear
3:55 PM 37.4 °F 28.2 °F 26.6 °F 65% 29.72 in 10.0 mi West 16.1 mph 19.6 mph N/A   Clear
4:15 PM 37.4 °F 29.8 °F 26.6 °F 65% 29.72 in 10.0 mi West 11.5 mph 19.6 mph N/A   Clear
4:35 PM 37.4 °F 29.3 °F 26.6 °F 65% 29.73 in 10.0 mi WNW 12.7 mph - N/A   Clear
4:55 PM 37.4 °F 29.3 °F 26.6 °F 65% 29.73 in 10.0 mi WNW 12.7 mph 17.3 mph N/A   Clear
5:15 PM 35.6 °F 27.1 °F 26.6 °F 70% 29.74 in 10.0 mi WNW 12.7 mph 18.4 mph N/A   Clear
5:35 PM 35.6 °F 27.1 °F 26.6 °F 70% 29.75 in 10.0 mi WNW 12.7 mph - N/A   Clear
5:55 PM 35.6 °F 27.1 °F 26.6 °F 70% 29.76 in 10.0 mi WNW 12.7 mph - N/A   Clear
6:15 PM 35.6 °F 26.2 °F 26.6 °F 70% 29.76 in 10.0 mi WNW 15.0 mph 19.6 mph N/A   Clear
7:15 PM 33.8 °F 23.5 °F 26.6 °F 75% 29.77 in 10.0 mi WNW 16.1 mph 21.9 mph N/A   Partly Cloudy
7:35 PM 33.8 °F 23.9 °F 26.6 °F 75% 29.77 in 10.0 mi West 15.0 mph - N/A   Scattered Clouds
7:55 PM 33.8 °F 23.2 °F 26.6 °F 75% 29.78 in 10.0 mi West 17.3 mph 20.7 mph N/A   Mostly Cloudy
8:15 PM 33.8 °F 24.3 °F 28.4 °F 81% 29.78 in 10.0 mi West 13.8 mph 19.6 mph N/A   Partly Cloudy
8:35 PM 33.8 °F 23.9 °F 26.6 °F 75% 29.78 in 10.0 mi West 15.0 mph 21.9 mph N/A   Mostly Cloudy
8:55 PM 35.6 °F 26.2 °F 26.6 °F 70% 29.78 in 10.0 mi West 15.0 mph 21.9 mph N/A   Mostly Cloudy
9:15 PM 35.6 °F 26.2 °F 26.6 °F 70% 29.78 in 10.0 mi West 15.0 mph 24.2 mph N/A   Partly Cloudy
9:35 PM 35.6 °F 26.6 °F 26.6 °F 70% 29.78 in 10.0 mi West 13.8 mph 19.6 mph N/A   Partly Cloudy
9:55 PM 33.8 °F 23.9 °F 26.6 °F 75% 29.78 in 10.0 mi West 15.0 mph 19.6 mph N/A   Mostly Cloudy
10:15 PM 33.8 °F 23.5 °F 26.6 °F 75% 29.81 in 10.0 mi West 16.1 mph 24.2 mph N/A   Mostly Cloudy
10:35 PM 32.0 °F 21.2 °F 26.6 °F 80% 29.82 in 10.0 mi West 16.1 mph 19.6 mph N/A   Partly Cloudy
10:55 PM 32.0 °F 22.1 °F 26.6 °F 80% 29.82 in 10.0 mi West 13.8 mph 19.6 mph N/A   Clear
11:15 PM 32.0 °F 22.1 °F 24.8 °F 75% 29.83 in 10.0 mi WNW 13.8 mph 21.9 mph N/A   Clear
11:35 PM 32.0 °F 21.6 °F 24.8 °F 75% 29.83 in 10.0 mi WNW 15.0 mph 20.7 mph N/A   Clear
11:55 PM 32.0 °F 21.2 °F 24.8 °F 75% 29.83 in 10.0 mi West 16.1 mph 21.9 mph N/A   Clear